Location: Albany
(35.0170°S, 117.8920°E)
Time: 16:34:38
(UTC+08:00)

Transit 2A - Pass Details

Date: 24 January 2021
Orbit: 601 x 958 km, 66.7° (Epoch: 02 March)

Event Time Altitude Azimuth Distance (km) Brightness Sun altitude
Rises 01:37:53 0° 211° (SSW) 3,565 9.9 -32.7°
Reaches altitude 10° 01:40:24 10° 213° (SSW) 2,651 9.1 -32.5°
Enters shadow 01:44:21 40° 229° (SW) 1,377 7.3 -32.2°
Maximum altitude 01:46:35 64° 293° (WNW) 1,058 - -32.0°
Drops below altitude 10° 01:52:50 10° 13° (NNE) 2,681 - -31.5°
Sets 01:55:24 0° 15° (NNE) 3,607 - -31.2°
